Time,TemperatureF,DewpointF,PressureIn,WindDirection,WindDirectionDegrees,WindSpeedMPH,WindSpeedGustMPH,Humidity,HourlyPrecipIn,Conditions,Clouds,dailyrainin,SoftwareType,DateUTC
2013-03-11 00:01:00,36.0,33.0,27.17,ENE,67,0.0,0.0,90,0.00,,,0.00,Rainwise IP-100,2013-03-11 06:01:00,
2013-03-11 00:06:00,36.0,33.0,27.17,ENE,67,0.0,0.0,90,0.00,,,0.00,Rainwise IP-100,2013-03-11 06:06:00,
2013-03-11 00:11:00,36.0,33.0,27.17,ENE,67,0.0,0.0,91,0.00,,,0.00,Rainwise IP-100,2013-03-11 06:11:00,
2013-03-11 00:16:00,36.0,33.0,27.17,ENE,67,0.0,0.0,91,0.00,,,0.00,Rainwise IP-100,2013-03-11 06:16:00,
2013-03-11 00:21:00,36.0,35.0,27.17,ENE,67,0.0,0.0,93,0.00,,,0.00,Rainwise IP-100,2013-03-11 06:21:00,
2013-03-11 00:26:00,36.0,35.0,27.17,ENE,67,0.0,0.0,93,0.00,,,0.00,Rainwise IP-100,2013-03-11 06:26:00,
2013-03-11 00:31:00,36.0,35.0,27.16,ENE,67,0.0,0.0,93,0.00,,,0.00,Rainwise IP-100,2013-03-11 06:31:00,
2013-03-11 00:36:00,36.0,35.0,27.16,ENE,67,0.0,0.0,94,0.00,,,0.00,Rainwise IP-100,2013-03-11 06:36:00,
2013-03-11 00:41:00,36.0,35.0,27.16,ENE,67,0.0,3.0,94,0.00,,,0.00,Rainwise IP-100,2013-03-11 06:41:00,
2013-03-11 00:46:00,36.0,35.0,27.16,ENE,67,0.0,3.0,94,0.00,,,0.00,Rainwise IP-100,2013-03-11 06:46:00,
2013-03-11 00:51:00,36.0,35.0,27.15,SE,135,3.0,6.0,94,0.00,,,0.00,Rainwise IP-100,2013-03-11 06:51:00,
2013-03-11 00:56:00,36.0,35.0,27.15,ESE,112,0.0,3.0,94,0.00,,,0.00,Rainwise IP-100,2013-03-11 06:56:00,
2013-03-11 01:01:00,36.0,35.0,27.15,East,90,0.0,3.0,93,0.00,,,0.00,Rainwise IP-100,2013-03-11 07:01:00,
2013-03-11 01:06:00,36.0,35.0,27.15,East,90,0.0,0.0,93,0.00,,,0.00,Rainwise IP-100,2013-03-11 07:06:00,
2013-03-11 01:11:00,36.0,35.0,27.15,East,90,0.0,0.0,94,0.00,,,0.00,Rainwise IP-100,2013-03-11 07:11:00,
2013-03-11 01:17:00,36.0,33.0,27.15,East,90,0.0,0.0,92,0.00,,,0.00,Rainwise IP-100,2013-03-11 07:17:00,
2013-03-11 01:21:00,36.0,35.0,27.15,NE,45,1.0,4.0,94,0.00,,,0.00,Rainwise IP-100,2013-03-11 07:21:00,
2013-03-11 01:27:00,36.0,35.0,27.15,NE,45,0.0,3.0,93,0.00,,,0.00,Rainwise IP-100,2013-03-11 07:27:00,
2013-03-11 01:32:00,36.0,35.0,27.14,NE,45,0.0,0.0,93,0.00,,,0.00,Rainwise IP-100,2013-03-11 07:32:00,
2013-03-11 01:37:00,36.0,35.0,27.14,NE,45,0.0,2.0,94,0.00,,,0.00,Rainwise IP-100,2013-03-11 07:37:00,
2013-03-11 01:42:00,36.0,33.0,27.13,NE,45,0.0,0.0,92,0.00,,,0.00,Rainwise IP-100,2013-03-11 07:42:00,
2013-03-11 01:47:00,36.0,35.0,27.13,NE,45,0.0,0.0,93,0.00,,,0.00,Rainwise IP-100,2013-03-11 07:47:00,
2013-03-11 01:52:00,36.0,35.0,27.13,NE,45,0.0,0.0,93,0.00,,,0.00,Rainwise IP-100,2013-03-11 07:52:00,
2013-03-11 01:57:00,36.0,35.0,27.13,NE,45,0.0,0.0,94,0.00,,,0.00,Rainwise IP-100,2013-03-11 07:57:00,
2013-03-11 02:02:00,36.0,35.0,27.13,SE,135,0.0,3.0,94,0.00,,,0.00,Rainwise IP-100,2013-03-11 08:02:00,
2013-03-11 02:07:00,36.0,35.0,27.13,ENE,67,0.0,4.0,94,0.00,,,0.00,Rainwise IP-100,2013-03-11 08:07:00,
2013-03-11 02:12:00,36.0,35.0,27.12,NW,315,0.0,4.0,94,0.00,,,0.00,Rainwise IP-100,2013-03-11 08:12:00,
2013-03-11 02:17:00,36.0,35.0,27.12,ENE,67,3.0,5.0,95,0.00,,,0.00,Rainwise IP-100,2013-03-11 08:17:00,
2013-03-11 02:22:00,36.0,35.0,27.12,ENE,67,4.0,5.0,94,0.00,,,0.00,Rainwise IP-100,2013-03-11 08:22:00,
2013-03-11 02:27:00,36.0,35.0,27.12,NNE,22,3.0,5.0,93,0.00,,,0.00,Rainwise IP-100,2013-03-11 08:27:00,
2013-03-11 02:32:00,36.0,35.0,27.12,ENE,67,5.0,5.0,93,0.00,,,0.00,Rainwise IP-100,2013-03-11 08:32:00,
2013-03-11 02:37:00,36.0,33.0,27.12,East,90,3.0,7.0,92,0.00,,,0.00,Rainwise IP-100,2013-03-11 08:37:00,
2013-03-11 02:42:00,36.0,33.0,27.11,NE,45,2.0,5.0,91,0.00,,,0.00,Rainwise IP-100,2013-03-11 08:42:00,
2013-03-11 02:47:00,36.0,33.0,27.11,ENE,67,3.0,6.0,90,0.00,,,0.00,Rainwise IP-100,2013-03-11 08:47:00,
2013-03-11 02:52:00,36.0,33.0,27.12,ENE,67,1.0,6.0,90,0.00,,,0.00,Rainwise IP-100,2013-03-11 08:52:00,
2013-03-11 02:57:00,36.0,33.0,27.12,SE,135,0.0,6.0,90,0.00,,,0.00,Rainwise IP-100,2013-03-11 08:57:00,
2013-03-11 03:02:00,36.0,33.0,27.11,WSW,247,4.0,4.0,90,0.00,,,0.00,Rainwise IP-100,2013-03-11 09:02:00,
2013-03-11 03:07:00,36.0,33.0,27.11,West,270,5.0,7.0,90,0.00,,,0.00,Rainwise IP-100,2013-03-11 09:07:00,
2013-03-11 03:12:00,36.0,33.0,27.12,West,270,0.0,5.0,92,0.00,,,0.00,Rainwise IP-100,2013-03-11 09:12:00,
2013-03-11 03:17:00,36.0,33.0,27.12,West,270,0.0,1.0,92,0.00,,,0.00,Rainwise IP-100,2013-03-11 09:17:00,
2013-03-11 03:22:00,36.0,33.0,27.12,West,270,0.0,0.0,91,0.00,,,0.00,Rainwise IP-100,2013-03-11 09:22:00,
2013-03-11 03:27:00,35.0,32.0,27.12,SW,225,2.0,4.0,92,0.00,,,0.00,Rainwise IP-100,2013-03-11 09:27:00,
2013-03-11 03:32:00,36.0,35.0,27.12,SW,225,0.0,6.0,93,0.00,,,0.00,Rainwise IP-100,2013-03-11 09:32:00,
2013-03-11 03:37:00,36.0,35.0,27.12,SW,225,0.0,0.0,93,0.00,,,0.00,Rainwise IP-100,2013-03-11 09:37:00,
2013-03-11 03:42:00,35.0,33.0,27.11,SW,225,0.0,0.0,93,0.00,,,0.00,Rainwise IP-100,2013-03-11 09:42:00,
2013-03-11 03:47:00,35.0,33.0,27.11,SW,225,0.0,0.0,94,0.00,,,0.00,Rainwise IP-100,2013-03-11 09:47:00,
2013-03-11 03:52:00,35.0,33.0,27.11,SW,225,0.0,0.0,94,0.00,,,0.00,Rainwise IP-100,2013-03-11 09:52:00,
2013-03-11 03:57:00,35.0,33.0,27.11,SW,225,0.0,0.0,94,0.00,,,0.00,Rainwise IP-100,2013-03-11 09:57:00,
2013-03-11 04:02:00,35.0,33.0,27.12,SW,225,0.0,0.0,94,0.00,,,0.00,Rainwise IP-100,2013-03-11 10:02:00,
2013-03-11 04:07:00,35.0,33.0,27.12,SW,225,1.0,3.0,94,0.00,,,0.00,Rainwise IP-100,2013-03-11 10:07:00,
2013-03-11 04:12:00,35.0,33.0,27.12,WSW,247,4.0,4.0,94,0.00,,,0.00,Rainwise IP-100,2013-03-11 10:12:00,
2013-03-11 04:17:00,35.0,33.0,27.12,West,270,1.0,4.0,94,0.00,,,0.00,Rainwise IP-100,2013-03-11 10:17:00,
2013-03-11 04:22:00,35.0,33.0,27.12,West,270,1.0,3.0,94,0.00,,,0.00,Rainwise IP-100,2013-03-11 10:22:00,
2013-03-11 04:27:00,35.0,33.0,27.12,West,270,0.0,3.0,94,0.00,,,0.00,Rainwise IP-100,2013-03-11 10:27:00,
2013-03-11 04:32:00,35.0,33.0,27.12,West,270,0.0,6.0,94,0.00,,,0.00,Rainwise IP-100,2013-03-11 10:32:00,
2013-03-11 04:37:00,35.0,33.0,27.12,WNW,292,4.0,5.0,94,0.00,,,0.00,Rainwise IP-100,2013-03-11 10:37:00,
2013-03-11 04:42:00,35.0,33.0,27.11,West,270,0.0,5.0,95,0.00,,,0.00,Rainwise IP-100,2013-03-11 10:42:00,
2013-03-11 04:47:00,35.0,33.0,27.11,WSW,247,0.0,4.0,94,0.00,,,0.00,Rainwise IP-100,2013-03-11 10:47:00,
2013-03-11 04:52:00,35.0,33.0,27.11,WSW,247,0.0,3.0,95,0.00,,,0.00,Rainwise IP-100,2013-03-11 10:52:00,
2013-03-11 04:57:00,34.0,33.0,27.11,WSW,247,0.0,2.0,95,0.00,,,0.00,Rainwise IP-100,2013-03-11 10:57:00,
2013-03-11 05:02:00,34.0,33.0,27.12,WSW,247,0.0,3.0,96,0.00,,,0.00,Rainwise IP-100,2013-03-11 11:02:00,
2013-03-11 05:07:00,34.0,33.0,27.12,WSW,247,0.0,0.0,96,0.00,,,0.00,Rainwise IP-100,2013-03-11 11:07:00,
2013-03-11 05:12:00,33.0,32.0,27.12,WSW,247,0.0,1.0,96,0.00,,,0.00,Rainwise IP-100,2013-03-11 11:12:00,
2013-03-11 05:17:00,33.0,32.0,27.12,WSW,247,0.0,0.0,97,0.00,,,0.00,Rainwise IP-100,2013-03-11 11:17:00,
2013-03-11 05:22:00,33.0,33.0,27.12,WSW,247,0.0,0.0,99,0.00,,,0.00,Rainwise IP-100,2013-03-11 11:22:00,
2013-03-11 05:27:00,33.0,32.0,27.12,WSW,247,3.0,3.0,96,0.00,,,0.00,Rainwise IP-100,2013-03-11 11:27:00,
2013-03-11 05:32:00,33.0,32.0,27.12,WSW,247,0.0,4.0,97,0.00,,,0.00,Rainwise IP-100,2013-03-11 11:32:00,
2013-03-11 05:37:00,33.0,32.0,27.12,WSW,247,0.0,2.0,97,0.00,,,0.00,Rainwise IP-100,2013-03-11 11:37:00,
2013-03-11 05:42:00,33.0,32.0,27.12,WSW,247,0.0,1.0,97,0.00,,,0.00,Rainwise IP-100,2013-03-11 11:42:00,
2013-03-11 05:47:00,33.0,33.0,27.12,WSW,247,0.0,0.0,98,0.00,,,0.00,Rainwise IP-100,2013-03-11 11:47:00,
2013-03-11 05:52:00,32.0,32.0,27.12,WSW,247,0.0,0.0,98,0.00,,,0.00,Rainwise IP-100,2013-03-11 11:52:00,
2013-03-11 05:57:00,32.0,32.0,27.12,WSW,247,0.0,1.0,99,0.00,,,0.00,Rainwise IP-100,2013-03-11 11:57:00,
2013-03-11 06:02:00,32.0,32.0,27.12,WSW,247,0.0,0.0,99,0.00,,,0.00,Rainwise IP-100,2013-03-11 12:02:00,
2013-03-11 06:07:00,33.0,33.0,27.12,WSW,247,0.0,0.0,99,0.00,,,0.00,Rainwise IP-100,2013-03-11 12:07:00,
2013-03-11 06:12:00,33.0,33.0,27.12,WSW,247,0.0,0.0,99,0.00,,,0.00,Rainwise IP-100,2013-03-11 12:12:00,
2013-03-11 06:17:00,33.0,33.0,27.12,ESE,112,1.0,2.0,100,0.00,,,0.00,Rainwise IP-100,2013-03-11 12:17:00,
2013-03-11 06:22:00,33.0,33.0,27.12,ESE,112,2.0,2.0,100,0.00,,,0.00,Rainwise IP-100,2013-03-11 12:22:00,
2013-03-11 06:27:00,33.0,33.0,27.12,ESE,112,1.0,4.0,100,0.00,,,0.00,Rainwise IP-100,2013-03-11 12:27:00,
2013-03-11 06:32:00,33.0,33.0,27.12,SSE,157,1.0,3.0,100,0.00,,,0.00,Rainwise IP-100,2013-03-11 12:32:00,
2013-03-11 06:38:00,33.0,33.0,27.12,SSE,157,0.0,4.0,100,0.00,,,0.00,Rainwise IP-100,2013-03-11 12:38:00,
2013-03-11 06:42:00,33.0,33.0,27.12,NNE,22,2.0,3.0,100,0.00,,,0.00,Rainwise IP-100,2013-03-11 12:42:00,
2013-03-11 06:47:00,33.0,33.0,27.12,ENE,67,3.0,7.0,100,0.00,,,0.00,Rainwise IP-100,2013-03-11 12:47:00,
2013-03-11 06:52:00,33.0,33.0,27.12,NE,45,2.0,6.0,100,0.00,,,0.00,Rainwise IP-100,2013-03-11 12:52:00,
2013-03-11 06:57:00,34.0,35.0,27.12,NNW,337,1.0,6.0,99,0.00,,,0.00,Rainwise IP-100,2013-03-11 12:57:00,
2013-03-11 07:02:00,34.0,33.0,27.12,NNE,22,2.0,7.0,94,0.00,,,0.00,Rainwise IP-100,2013-03-11 13:02:00,
2013-03-11 07:08:00,35.0,33.0,27.11,ESE,112,0.0,5.0,93,0.00,,,0.00,Rainwise IP-100,2013-03-11 13:08:00,
2013-03-11 07:13:00,34.0,33.0,27.11,ESE,112,0.0,2.0,94,0.00,,,0.00,Rainwise IP-100,2013-03-11 13:13:00,
2013-03-11 07:18:00,34.0,33.0,27.11,SSE,157,3.0,4.0,94,0.00,,,0.00,Rainwise IP-100,2013-03-11 13:18:00,
2013-03-11 07:23:00,35.0,32.0,27.11,SE,135,5.0,7.0,91,0.00,,,0.00,Rainwise IP-100,2013-03-11 13:23:00,
2013-03-11 07:28:00,35.0,32.0,27.10,SSE,157,2.0,6.0,90,0.00,,,0.00,Rainwise IP-100,2013-03-11 13:28:00,
2013-03-11 07:33:00,34.0,32.0,27.10,SSE,157,3.0,4.0,92,0.00,,,0.00,Rainwise IP-100,2013-03-11 13:33:00,
2013-03-11 07:38:00,35.0,32.0,27.10,NNW,337,0.0,6.0,90,0.00,,,0.00,Rainwise IP-100,2013-03-11 13:38:00,
2013-03-11 07:43:00,35.0,29.0,27.10,South,180,4.0,7.0,80,0.00,,,0.00,Rainwise IP-100,2013-03-11 13:43:00,
2013-03-11 07:48:00,38.0,29.0,27.09,South,180,1.0,12.0,70,0.00,,,0.00,Rainwise IP-100,2013-03-11 13:48:00,
2013-03-11 07:53:00,38.0,28.0,27.09,WSW,247,0.0,9.0,67,0.00,,,0.00,Rainwise IP-100,2013-03-11 13:53:00,
2013-03-11 07:58:00,38.0,29.0,27.09,NW,315,0.0,7.0,69,0.00,,,0.00,Rainwise IP-100,2013-03-11 13:58:00,
2013-03-11 08:03:00,38.0,29.0,27.09,SSW,202,1.0,6.0,68,0.00,,,0.00,Rainwise IP-100,2013-03-11 14:03:00,
2013-03-11 08:08:00,38.0,26.0,27.09,SSW,202,5.0,7.0,63,0.00,,,0.00,Rainwise IP-100,2013-03-11 14:08:00,
2013-03-11 08:13:00,39.0,28.0,27.09,WSW,247,4.0,7.0,61,0.00,,,0.00,Rainwise IP-100,2013-03-11 14:13:00,
2013-03-11 08:18:00,39.0,28.0,27.09,WSW,247,1.0,9.0,62,0.00,,,0.00,Rainwise IP-100,2013-03-11 14:18:00,
2013-03-11 08:23:00,39.0,28.0,27.09,West,270,1.0,7.0,61,0.00,,,0.00,Rainwise IP-100,2013-03-11 14:23:00,
2013-03-11 08:28:00,39.0,28.0,27.09,West,270,3.0,6.0,62,0.00,,,0.00,Rainwise IP-100,2013-03-11 14:28:00,
2013-03-11 08:33:00,39.0,28.0,27.09,WSW,247,5.0,5.0,61,0.00,,,0.00,Rainwise IP-100,2013-03-11 14:33:00,
2013-03-11 08:38:00,39.0,28.0,27.09,West,270,1.0,6.0,61,0.00,,,0.00,Rainwise IP-100,2013-03-11 14:38:00,
2013-03-11 08:43:00,39.0,26.0,27.09,West,270,4.0,9.0,60,0.00,,,0.00,Rainwise IP-100,2013-03-11 14:43:00,
2013-03-11 08:48:00,39.0,26.0,27.10,West,270,2.0,4.0,60,0.00,,,0.00,Rainwise IP-100,2013-03-11 14:48:00,
2013-03-11 08:53:00,39.0,28.0,27.10,South,180,2.0,2.0,62,0.00,,,0.00,Rainwise IP-100,2013-03-11 14:53:00,
2013-03-11 08:58:00,39.0,28.0,27.10,NW,315,0.0,4.0,62,0.00,,,0.00,Rainwise IP-100,2013-03-11 14:58:00,
2013-03-11 09:03:00,39.0,28.0,27.10,SW,225,1.0,8.0,61,0.00,,,0.00,Rainwise IP-100,2013-03-11 15:03:00,
2013-03-11 09:08:00,39.0,26.0,27.11,WSW,247,0.0,9.0,59,0.00,,,0.00,Rainwise IP-100,2013-03-11 15:08:00,
2013-03-11 09:13:00,39.0,26.0,27.11,WSW,247,3.0,4.0,60,0.00,,,0.00,Rainwise IP-100,2013-03-11 15:13:00,
2013-03-11 09:18:00,39.0,26.0,27.11,West,270,3.0,8.0,60,0.00,,,0.00,Rainwise IP-100,2013-03-11 15:18:00,
2013-03-11 09:23:00,39.0,28.0,27.11,West,270,3.0,5.0,61,0.00,,,0.00,Rainwise IP-100,2013-03-11 15:23:00,
2013-03-11 09:28:00,39.0,28.0,27.11,West,270,0.0,3.0,63,0.00,,,0.00,Rainwise IP-100,2013-03-11 15:28:00,
2013-03-11 09:33:00,39.0,28.0,27.11,West,270,0.0,2.0,63,0.00,,,0.00,Rainwise IP-100,2013-03-11 15:33:00,
2013-03-11 09:38:00,39.0,28.0,27.12,SSW,202,1.0,6.0,61,0.00,,,0.00,Rainwise IP-100,2013-03-11 15:38:00,
2013-03-11 09:43:00,39.0,28.0,27.12,West,270,1.0,6.0,63,0.00,,,0.00,Rainwise IP-100,2013-03-11 15:43:00,
2013-03-11 09:48:00,39.0,28.0,27.12,WSW,247,1.0,5.0,62,0.00,,,0.00,Rainwise IP-100,2013-03-11 15:48:00,
2013-03-11 09:53:00,39.0,28.0,27.12,WSW,247,1.0,3.0,64,0.00,,,0.00,Rainwise IP-100,2013-03-11 15:53:00,
2013-03-11 09:58:00,40.0,29.0,27.11,WSW,247,0.0,1.0,63,0.00,,,0.00,Rainwise IP-100,2013-03-11 15:58:00,
2013-03-11 10:03:00,40.0,28.0,27.11,WSW,247,1.0,6.0,60,0.00,,,0.00,Rainwise IP-100,2013-03-11 16:03:00,
2013-03-11 10:08:00,40.0,28.0,27.12,WSW,247,0.0,3.0,59,0.00,,,0.00,Rainwise IP-100,2013-03-11 16:08:00,
2013-03-11 10:13:00,40.0,28.0,27.12,WSW,247,0.0,0.0,60,0.00,,,0.00,Rainwise IP-100,2013-03-11 16:13:00,
2013-03-11 10:18:00,40.0,28.0,27.11,NNW,337,1.0,4.0,60,0.00,,,0.00,Rainwise IP-100,2013-03-11 16:18:00,
2013-03-11 10:23:00,40.0,28.0,27.11,North,360,2.0,3.0,60,0.00,,,0.00,Rainwise IP-100,2013-03-11 16:23:00,
2013-03-11 10:28:00,41.0,29.0,27.11,West,270,5.0,5.0,61,0.00,,,0.00,Rainwise IP-100,2013-03-11 16:28:00,
2013-03-11 10:33:00,40.0,28.0,27.11,NW,315,5.0,6.0,60,0.00,,,0.00,Rainwise IP-100,2013-03-11 16:33:00,
2013-03-11 10:38:00,41.0,28.0,27.11,WNW,292,5.0,8.0,59,0.00,,,0.00,Rainwise IP-100,2013-03-11 16:38:00,
2013-03-11 10:43:00,41.0,28.0,27.11,West,270,3.0,7.0,59,0.00,,,0.00,Rainwise IP-100,2013-03-11 16:43:00,
2013-03-11 10:48:00,41.0,28.0,27.11,West,270,5.0,8.0,59,0.00,,,0.00,Rainwise IP-100,2013-03-11 16:48:00,
2013-03-11 10:53:00,41.0,28.0,27.11,West,270,6.0,9.0,58,0.00,,,0.00,Rainwise IP-100,2013-03-11 16:53:00,
2013-03-11 10:58:00,41.0,28.0,27.11,WNW,292,6.0,8.0,58,0.00,,,0.00,Rainwise IP-100,2013-03-11 16:58:00,
2013-03-11 11:03:00,41.0,28.0,27.11,WSW,247,3.0,7.0,59,0.00,,,0.00,Rainwise IP-100,2013-03-11 17:03:00,
2013-03-11 11:08:00,42.0,28.0,27.11,SSW,202,3.0,7.0,57,0.00,,,0.00,Rainwise IP-100,2013-03-11 17:08:00,
2013-03-11 11:13:00,42.0,28.0,27.11,WNW,292,5.0,7.0,57,0.00,,,0.00,Rainwise IP-100,2013-03-11 17:13:00,
2013-03-11 11:18:00,42.0,28.0,27.11,WNW,292,5.0,9.0,56,0.00,,,0.00,Rainwise IP-100,2013-03-11 17:18:00,
2013-03-11 11:23:00,42.0,28.0,27.11,SW,225,3.0,6.0,56,0.00,,,0.00,Rainwise IP-100,2013-03-11 17:23:00,
2013-03-11 11:28:00,43.0,28.0,27.10,SSW,202,1.0,7.0,54,0.00,,,0.00,Rainwise IP-100,2013-03-11 17:28:00,
2013-03-11 11:33:00,43.0,28.0,27.10,West,270,4.0,7.0,53,0.00,,,0.00,Rainwise IP-100,2013-03-11 17:33:00,
2013-03-11 11:38:00,44.0,28.0,27.10,WNW,292,4.0,7.0,53,0.00,,,0.00,Rainwise IP-100,2013-03-11 17:38:00,
2013-03-11 11:43:00,43.0,26.0,27.10,WNW,292,3.0,9.0,51,0.00,,,0.00,Rainwise IP-100,2013-03-11 17:43:00,
2013-03-11 11:48:00,44.0,28.0,27.10,NNW,337,4.0,9.0,50,0.00,,,0.00,Rainwise IP-100,2013-03-11 17:48:00,
2013-03-11 11:53:00,44.0,26.0,27.10,North,360,1.0,8.0,47,0.00,,,0.00,Rainwise IP-100,2013-03-11 17:53:00,
2013-03-11 11:58:00,45.0,26.0,27.09,West,270,6.0,6.0,47,0.00,,,0.00,Rainwise IP-100,2013-03-11 17:58:00,
2013-03-11 12:03:00,45.0,26.0,27.09,NW,315,7.0,7.0,45,0.00,,,0.00,Rainwise IP-100,2013-03-11 18:03:00,
2013-03-11 12:08:00,45.0,24.0,27.09,NNW,337,1.0,10.0,42,0.00,,,0.00,Rainwise IP-100,2013-03-11 18:08:00,
2013-03-11 12:13:00,45.0,23.0,27.09,West,270,7.0,7.0,40,0.00,,,0.00,Rainwise IP-100,2013-03-11 18:13:00,
2013-03-11 12:18:00,45.0,23.0,27.09,WNW,292,7.0,11.0,39,0.00,,,0.00,Rainwise IP-100,2013-03-11 18:18:00,
2013-03-11 12:23:00,45.0,21.0,27.09,West,270,2.0,10.0,37,0.00,,,0.00,Rainwise IP-100,2013-03-11 18:23:00,
2013-03-11 12:28:00,45.0,18.0,27.09,West,270,9.0,15.0,34,0.00,,,0.00,Rainwise IP-100,2013-03-11 18:28:00,
2013-03-11 12:33:00,45.0,18.0,27.09,WNW,292,13.0,17.0,32,0.00,,,0.00,Rainwise IP-100,2013-03-11 18:33:00,
2013-03-11 12:38:00,46.0,21.0,27.09,WSW,247,6.0,17.0,34,0.00,,,0.00,Rainwise IP-100,2013-03-11 18:38:00,
2013-03-11 12:43:00,46.0,18.0,27.09,West,270,9.0,11.0,32,0.00,,,0.00,Rainwise IP-100,2013-03-11 18:43:00,
2013-03-11 12:48:00,46.0,21.0,27.08,West,270,4.0,15.0,34,0.00,,,0.00,Rainwise IP-100,2013-03-11 18:48:00,
2013-03-11 12:53:00,46.0,18.0,27.08,West,270,6.0,10.0,33,0.00,,,0.00,Rainwise IP-100,2013-03-11 18:53:00,
2013-03-11 12:58:00,47.0,21.0,27.07,WNW,292,3.0,8.0,33,0.00,,,0.00,Rainwise IP-100,2013-03-11 18:58:00,
2013-03-11 13:03:00,47.0,21.0,27.07,WNW,292,2.0,7.0,33,0.00,,,0.00,Rainwise IP-100,2013-03-11 19:03:00,
2013-03-11 13:08:00,47.0,18.0,27.07,NNW,337,4.0,9.0,32,0.00,,,0.00,Rainwise IP-100,2013-03-11 19:08:00,
2013-03-11 13:13:00,46.0,18.0,27.07,North,360,4.0,13.0,31,0.00,,,0.00,Rainwise IP-100,2013-03-11 19:13:00,
2013-03-11 13:18:00,47.0,18.0,27.07,NW,315,9.0,13.0,30,0.00,,,0.00,Rainwise IP-100,2013-03-11 19:18:00,
2013-03-11 13:23:00,47.0,18.0,27.07,SSW,202,3.0,10.0,30,0.00,,,0.00,Rainwise IP-100,2013-03-11 19:23:00,
2013-03-11 13:28:00,48.0,18.0,27.07,West,270,10.0,10.0,30,0.00,,,0.00,Rainwise IP-100,2013-03-11 19:28:00,
2013-03-11 13:33:00,47.0,18.0,27.07,West,270,6.0,14.0,31,0.00,,,0.00,Rainwise IP-100,2013-03-11 19:33:00,
2013-03-11 13:38:00,47.0,16.0,27.07,West,270,13.0,13.0,28,0.00,,,0.00,Rainwise IP-100,2013-03-11 19:38:00,
2013-03-11 13:43:00,46.0,16.0,27.07,WSW,247,6.0,16.0,30,0.00,,,0.00,Rainwise IP-100,2013-03-11 19:43:00,
2013-03-11 13:48:00,47.0,18.0,27.07,West,270,5.0,9.0,30,0.00,,,0.00,Rainwise IP-100,2013-03-11 19:48:00,
2013-03-11 13:53:00,48.0,18.0,27.07,South,180,1.0,13.0,30,0.00,,,0.00,Rainwise IP-100,2013-03-11 19:53:00,
2013-03-11 13:58:00,48.0,18.0,27.06,WSW,247,10.0,14.0,28,0.00,,,0.00,Rainwise IP-100,2013-03-11 19:58:00,
2013-03-11 14:03:00,48.0,18.0,27.06,West,270,6.0,15.0,29,0.06,,,0.01,Rainwise IP-100,2013-03-11 20:03:00,
2013-03-11 14:08:00,49.0,18.0,27.05,SW,225,1.0,8.0,28,0.06,,,0.01,Rainwise IP-100,2013-03-11 20:08:00,
2013-03-11 14:13:00,47.0,18.0,27.05,NNW,337,6.0,16.0,30,0.00,,,0.01,Rainwise IP-100,2013-03-11 20:13:00,
2013-03-11 14:18:00,47.0,16.0,27.06,West,270,7.0,13.0,27,0.00,,,0.01,Rainwise IP-100,2013-03-11 20:18:00,
2013-03-11 14:23:00,48.0,16.0,27.06,NNW,337,9.0,15.0,27,0.00,,,0.01,Rainwise IP-100,2013-03-11 20:23:00,
2013-03-11 14:28:00,48.0,16.0,27.05,WSW,247,7.0,18.0,26,0.00,,,0.01,Rainwise IP-100,2013-03-11 20:28:00,
2013-03-11 14:33:00,48.0,18.0,27.05,WNW,292,7.0,17.0,28,0.00,,,0.01,Rainwise IP-100,2013-03-11 20:33:00,
2013-03-11 14:38:00,47.0,14.0,27.06,West,270,12.0,19.0,26,0.00,,,0.01,Rainwise IP-100,2013-03-11 20:38:00,
2013-03-11 14:43:00,47.0,16.0,27.06,NW,315,9.0,16.0,27,0.00,,,0.01,Rainwise IP-100,2013-03-11 20:43:00,
2013-03-11 14:48:00,47.0,16.0,27.05,WNW,292,3.0,21.0,28,0.00,,,0.01,Rainwise IP-100,2013-03-11 20:48:00,
2013-03-11 14:53:00,47.0,14.0,27.05,WNW,292,7.0,22.0,26,0.00,,,0.01,Rainwise IP-100,2013-03-11 20:53:00,
2013-03-11 14:58:00,48.0,16.0,27.05,West,270,6.0,20.0,27,0.00,,,0.01,Rainwise IP-100,2013-03-11 20:58:00,
2013-03-11 15:03:00,48.0,16.0,27.05,WNW,292,14.0,15.0,26,0.00,,,0.01,Rainwise IP-100,2013-03-11 21:03:00,
2013-03-11 15:08:00,48.0,16.0,27.05,WSW,247,7.0,20.0,25,0.00,,,0.01,Rainwise IP-100,2013-03-11 21:08:00,
2013-03-11 15:13:00,48.0,16.0,27.05,NW,315,6.0,17.0,25,0.00,,,0.01,Rainwise IP-100,2013-03-11 21:13:00,
2013-03-11 15:18:00,48.0,16.0,27.04,SW,225,7.0,19.0,25,0.00,,,0.01,Rainwise IP-100,2013-03-11 21:18:00,
2013-03-11 15:23:00,48.0,16.0,27.04,WSW,247,6.0,21.0,26,0.00,,,0.01,Rainwise IP-100,2013-03-11 21:23:00,
2013-03-11 15:28:00,48.0,16.0,27.04,WNW,292,17.0,21.0,25,0.00,,,0.01,Rainwise IP-100,2013-03-11 21:28:00,
2013-03-11 15:33:00,47.0,16.0,27.04,West,270,15.0,20.0,27,0.00,,,0.01,Rainwise IP-100,2013-03-11 21:33:00,
2013-03-11 15:38:00,47.0,16.0,27.05,West,270,7.0,17.0,27,0.00,,,0.01,Rainwise IP-100,2013-03-11 21:38:00,
2013-03-11 15:43:00,47.0,16.0,27.05,West,270,9.0,18.0,27,0.00,,,0.01,Rainwise IP-100,2013-03-11 21:43:00,
2013-03-11 15:48:00,48.0,16.0,27.04,WNW,292,8.0,17.0,27,0.00,,,0.01,Rainwise IP-100,2013-03-11 21:48:00,
2013-03-11 15:53:00,48.0,16.0,27.04,NW,315,11.0,14.0,27,0.00,,,0.01,Rainwise IP-100,2013-03-11 21:53:00,
2013-03-11 15:58:00,48.0,16.0,27.04,West,270,6.0,15.0,27,0.00,,,0.01,Rainwise IP-100,2013-03-11 21:58:00,
2013-03-11 16:03:00,48.0,16.0,27.04,WNW,292,6.0,22.0,27,0.00,,,0.01,Rainwise IP-100,2013-03-11 22:03:00,
2013-03-11 16:08:00,49.0,16.0,27.03,WNW,292,7.0,18.0,25,0.00,,,0.01,Rainwise IP-100,2013-03-11 22:08:00,
2013-03-11 16:13:00,48.0,16.0,27.03,WNW,292,11.0,20.0,25,0.00,,,0.01,Rainwise IP-100,2013-03-11 22:13:00,
2013-03-11 16:18:00,48.0,16.0,27.04,WNW,292,8.0,21.0,26,0.00,,,0.01,Rainwise IP-100,2013-03-11 22:18:00,
2013-03-11 16:23:00,48.0,16.0,27.04,West,270,11.0,16.0,26,0.00,,,0.01,Rainwise IP-100,2013-03-11 22:23:00,
2013-03-11 16:28:00,48.0,16.0,27.04,WNW,292,12.0,20.0,26,0.00,,,0.01,Rainwise IP-100,2013-03-11 22:28:00,
2013-03-11 16:33:00,49.0,16.0,27.04,WNW,292,6.0,17.0,27,0.00,,,0.01,Rainwise IP-100,2013-03-11 22:33:00,
2013-03-11 16:38:00,49.0,16.0,27.04,WNW,292,9.0,13.0,27,0.00,,,0.01,Rainwise IP-100,2013-03-11 22:38:00,
2013-03-11 16:43:00,48.0,18.0,27.04,WSW,247,6.0,15.0,28,0.00,,,0.01,Rainwise IP-100,2013-03-11 22:43:00,
2013-03-11 16:48:00,49.0,18.0,27.04,West,270,3.0,15.0,28,0.00,,,0.01,Rainwise IP-100,2013-03-11 22:48:00,
2013-03-11 16:54:00,49.0,16.0,27.04,West,270,9.0,16.0,27,0.00,,,0.01,Rainwise IP-100,2013-03-11 22:54:00,
2013-03-11 16:59:00,49.0,16.0,27.04,NW,315,10.0,15.0,26,0.00,,,0.01,Rainwise IP-100,2013-03-11 22:59:00,
2013-03-11 17:04:00,49.0,16.0,27.04,WNW,292,4.0,22.0,27,0.00,,,0.01,Rainwise IP-100,2013-03-11 23:04:00,
2013-03-11 17:09:00,50.0,18.0,27.03,West,270,7.0,17.0,27,0.00,,,0.01,Rainwise IP-100,2013-03-11 23:09:00,
2013-03-11 17:14:00,50.0,16.0,27.03,WNW,292,10.0,23.0,25,0.00,,,0.01,Rainwise IP-100,2013-03-11 23:14:00,
2013-03-11 17:19:00,49.0,16.0,27.04,WSW,247,6.0,19.0,26,0.00,,,0.01,Rainwise IP-100,2013-03-11 23:19:00,
2013-03-11 17:24:00,49.0,16.0,27.04,North,360,2.0,19.0,26,0.00,,,0.01,Rainwise IP-100,2013-03-11 23:24:00,
2013-03-11 17:29:00,50.0,16.0,27.03,SW,225,2.0,15.0,25,0.00,,,0.01,Rainwise IP-100,2013-03-11 23:29:00,
2013-03-11 17:34:00,50.0,16.0,27.03,SW,225,6.0,10.0,26,0.00,,,0.01,Rainwise IP-100,2013-03-11 23:34:00,
2013-03-11 17:39:00,51.0,18.0,27.03,West,270,6.0,14.0,25,0.00,,,0.01,Rainwise IP-100,2013-03-11 23:39:00,
2013-03-11 17:44:00,50.0,16.0,27.03,WSW,247,8.0,15.0,26,0.00,,,0.01,Rainwise IP-100,2013-03-11 23:44:00,
2013-03-11 17:49:00,51.0,18.0,27.03,West,270,9.0,13.0,26,0.00,,,0.01,Rainwise IP-100,2013-03-11 23:49:00,
2013-03-11 17:54:00,50.0,16.0,27.03,South,180,3.0,14.0,26,0.00,,,0.01,Rainwise IP-100,2013-03-11 23:54:00,
2013-03-11 17:59:00,50.0,16.0,27.04,WNW,292,13.0,15.0,25,0.00,,,0.01,Rainwise IP-100,2013-03-11 23:59:00,
2013-03-11 18:04:00,49.0,16.0,27.04,West,270,6.0,18.0,25,0.00,,,0.01,Rainwise IP-100,2013-03-12 00:04:00,
2013-03-11 18:09:00,49.0,16.0,27.04,WNW,292,10.0,15.0,25,0.00,,,0.01,Rainwise IP-100,2013-03-12 00:09:00,
2013-03-11 18:14:00,48.0,16.0,27.04,WSW,247,10.0,17.0,26,0.00,,,0.01,Rainwise IP-100,2013-03-12 00:14:00,
2013-03-11 18:19:00,48.0,16.0,27.05,WNW,292,7.0,25.0,26,0.00,,,0.01,Rainwise IP-100,2013-03-12 00:19:00,
2013-03-11 18:24:00,47.0,16.0,27.05,West,270,17.0,17.0,27,0.00,,,0.01,Rainwise IP-100,2013-03-12 00:24:00,
2013-03-11 18:29:00,47.0,14.0,27.05,West,270,7.0,17.0,26,0.00,,,0.01,Rainwise IP-100,2013-03-12 00:29:00,
2013-03-11 18:34:00,47.0,16.0,27.05,West,270,7.0,20.0,27,0.00,,,0.01,Rainwise IP-100,2013-03-12 00:34:00,
2013-03-11 18:39:00,47.0,16.0,27.06,West,270,5.0,17.0,27,0.00,,,0.01,Rainwise IP-100,2013-03-12 00:39:00,
2013-03-11 18:44:00,47.0,16.0,27.06,SW,225,5.0,16.0,28,0.00,,,0.01,Rainwise IP-100,2013-03-12 00:44:00,
2013-03-11 18:49:00,47.0,16.0,27.06,West,270,8.0,13.0,28,0.00,,,0.01,Rainwise IP-100,2013-03-12 00:49:00,
2013-03-11 18:54:00,46.0,16.0,27.06,WSW,247,6.0,15.0,28,0.00,,,0.01,Rainwise IP-100,2013-03-12 00:54:00,
2013-03-11 18:59:00,46.0,16.0,27.07,SW,225,2.0,10.0,29,0.00,,,0.01,Rainwise IP-100,2013-03-12 00:59:00,
2013-03-11 19:04:00,46.0,18.0,27.07,SSW,202,5.0,7.0,31,0.00,,,0.01,Rainwise IP-100,2013-03-12 01:04:00,
2013-03-11 19:09:00,46.0,18.0,27.07,WSW,247,3.0,9.0,31,0.00,,,0.01,Rainwise IP-100,2013-03-12 01:09:00,
2013-03-11 19:14:00,46.0,18.0,27.07,SSW,202,2.0,9.0,32,0.00,,,0.01,Rainwise IP-100,2013-03-12 01:14:00,
2013-03-11 19:19:00,45.0,18.0,27.08,West,270,0.0,7.0,32,0.00,,,0.01,Rainwise IP-100,2013-03-12 01:19:00,
2013-03-11 19:24:00,44.0,18.0,27.08,West,270,1.0,8.0,34,0.00,,,0.01,Rainwise IP-100,2013-03-12 01:24:00,
2013-03-11 19:29:00,44.0,18.0,27.09,SW,225,1.0,7.0,34,0.00,,,0.01,Rainwise IP-100,2013-03-12 01:29:00,
2013-03-11 19:34:00,44.0,18.0,27.09,SSW,202,2.0,9.0,35,0.00,,,0.01,Rainwise IP-100,2013-03-12 01:34:00,
2013-03-11 19:39:00,43.0,18.0,27.10,SSW,202,1.0,7.0,35,0.00,,,0.01,Rainwise IP-100,2013-03-12 01:39:00,
2013-03-11 19:44:00,43.0,18.0,27.10,WSW,247,2.0,7.0,36,0.00,,,0.01,Rainwise IP-100,2013-03-12 01:44:00,
2013-03-11 19:49:00,43.0,18.0,27.10,WSW,247,2.0,7.0,36,0.00,,,0.01,Rainwise IP-100,2013-03-12 01:49:00,
2013-03-11 19:54:00,42.0,18.0,27.10,NW,315,5.0,7.0,37,0.00,,,0.01,Rainwise IP-100,2013-03-12 01:54:00,
2013-03-11 19:59:00,42.0,18.0,27.11,West,270,7.0,7.0,36,0.00,,,0.01,Rainwise IP-100,2013-03-12 01:59:00,
2013-03-11 20:04:00,42.0,18.0,27.11,WSW,247,5.0,11.0,36,0.00,,,0.01,Rainwise IP-100,2013-03-12 02:04:00,
2013-03-11 20:09:00,42.0,18.0,27.11,West,270,2.0,7.0,36,0.00,,,0.01,Rainwise IP-100,2013-03-12 02:09:00,
2013-03-11 20:14:00,42.0,18.0,27.11,WSW,247,5.0,10.0,36,0.00,,,0.01,Rainwise IP-100,2013-03-12 02:14:00,
2013-03-11 20:19:00,42.0,18.0,27.11,SW,225,2.0,10.0,36,0.00,,,0.01,Rainwise IP-100,2013-03-12 02:19:00,
2013-03-11 20:24:00,42.0,18.0,27.11,SSW,202,2.0,9.0,37,0.00,,,0.01,Rainwise IP-100,2013-03-12 02:24:00,
2013-03-11 20:29:00,42.0,18.0,27.11,West,270,3.0,8.0,36,0.00,,,0.01,Rainwise IP-100,2013-03-12 02:29:00,
2013-03-11 20:34:00,42.0,18.0,27.11,WSW,247,3.0,9.0,37,0.00,,,0.01,Rainwise IP-100,2013-03-12 02:34:00,
2013-03-11 20:39:00,42.0,18.0,27.11,SSE,157,0.0,8.0,37,0.00,,,0.01,Rainwise IP-100,2013-03-12 02:39:00,
2013-03-11 20:44:00,41.0,18.0,27.11,West,270,3.0,12.0,37,0.00,,,0.01,Rainwise IP-100,2013-03-12 02:44:00,
2013-03-11 20:49:00,41.0,18.0,27.12,WNW,292,0.0,10.0,37,0.00,,,0.01,Rainwise IP-100,2013-03-12 02:49:00,
2013-03-11 20:54:00,41.0,18.0,27.12,NW,315,2.0,6.0,38,0.00,,,0.01,Rainwise IP-100,2013-03-12 02:54:00,
2013-03-11 20:59:00,40.0,18.0,27.13,NNW,337,2.0,6.0,39,0.00,,,0.01,Rainwise IP-100,2013-03-12 02:59:00,
2013-03-11 21:04:00,40.0,18.0,27.13,North,360,2.0,7.0,41,0.00,,,0.01,Rainwise IP-100,2013-03-12 03:04:00,
2013-03-11 21:09:00,40.0,18.0,27.13,NNE,22,4.0,5.0,41,0.00,,,0.01,Rainwise IP-100,2013-03-12 03:09:00,
2013-03-11 21:14:00,40.0,21.0,27.13,NNE,22,1.0,5.0,42,0.00,,,0.01,Rainwise IP-100,2013-03-12 03:14:00,
2013-03-11 21:19:00,39.0,18.0,27.14,ENE,67,2.0,6.0,43,0.00,,,0.01,Rainwise IP-100,2013-03-12 03:19:00,
2013-03-11 21:24:00,39.0,21.0,27.14,ESE,112,0.0,6.0,44,0.00,,,0.01,Rainwise IP-100,2013-03-12 03:24:00,
2013-03-11 21:29:00,38.0,18.0,27.15,East,90,2.0,3.0,45,0.00,,,0.01,Rainwise IP-100,2013-03-12 03:29:00,
2013-03-11 21:34:00,38.0,21.0,27.15,East,90,2.0,2.0,47,0.00,,,0.01,Rainwise IP-100,2013-03-12 03:34:00,
2013-03-11 21:39:00,37.0,18.0,27.16,East,90,0.0,3.0,47,0.00,,,0.01,Rainwise IP-100,2013-03-12 03:39:00,
2013-03-11 21:44:00,36.0,18.0,27.16,East,90,0.0,0.0,48,0.00,,,0.01,Rainwise IP-100,2013-03-12 03:44:00,
2013-03-11 21:49:00,36.0,18.0,27.17,East,90,0.0,0.0,49,0.00,,,0.01,Rainwise IP-100,2013-03-12 03:49:00,
2013-03-11 21:54:00,36.0,21.0,27.17,East,90,0.0,0.0,50,0.00,,,0.01,Rainwise IP-100,2013-03-12 03:54:00,
2013-03-11 21:59:00,35.0,18.0,27.17,East,90,0.0,0.0,51,0.00,,,0.01,Rainwise IP-100,2013-03-12 03:59:00,
2013-03-11 22:00:00,35.0,18.0,27.17,East,90,0.0,0.0,51,0.00,,,0.01,Rainwise IP-100,2013-03-12 04:00:00,
2013-03-11 22:01:00,35.0,18.0,27.17,East,90,0.0,0.0,51,0.00,,,0.01,Rainwise IP-100,2013-03-12 04:01:00,
2013-03-11 22:06:00,34.0,21.0,27.17,East,90,0.0,0.0,53,0.00,,,0.01,Rainwise IP-100,2013-03-12 04:06:00,
2013-03-11 22:11:00,34.0,21.0,27.18,East,90,0.0,3.0,55,0.00,,,0.01,Rainwise IP-100,2013-03-12 04:11:00,
2013-03-11 22:16:00,34.0,23.0,27.18,East,90,3.0,3.0,58,0.00,,,0.01,Rainwise IP-100,2013-03-12 04:16:00,
2013-03-11 22:21:00,34.0,21.0,27.18,SE,135,3.0,4.0,56,0.00,,,0.01,Rainwise IP-100,2013-03-12 04:21:00,
2013-03-11 22:26:00,34.0,21.0,27.18,SE,135,0.0,4.0,56,0.00,,,0.01,Rainwise IP-100,2013-03-12 04:26:00,
2013-03-11 22:31:00,33.0,21.0,27.18,SE,135,0.0,0.0,56,0.00,,,0.01,Rainwise IP-100,2013-03-12 04:31:00,
2013-03-11 22:36:00,33.0,21.0,27.18,SE,135,0.0,0.0,56,0.00,,,0.01,Rainwise IP-100,2013-03-12 04:36:00,
2013-03-11 22:41:00,32.0,21.0,27.19,SE,135,0.0,0.0,60,0.00,,,0.01,Rainwise IP-100,2013-03-12 04:41:00,
2013-03-11 22:46:00,32.0,21.0,27.19,SE,135,1.0,2.0,60,0.00,,,0.01,Rainwise IP-100,2013-03-12 04:46:00,
2013-03-11 22:51:00,32.0,21.0,27.19,SE,135,0.0,2.0,62,0.00,,,0.01,Rainwise IP-100,2013-03-12 04:51:00,
2013-03-11 22:56:00,32.0,21.0,27.19,ESE,112,0.0,4.0,62,0.00,,,0.01,Rainwise IP-100,2013-03-12 04:56:00,
2013-03-11 23:01:00,32.0,21.0,27.20,ENE,67,1.0,4.0,62,0.00,,,0.01,Rainwise IP-100,2013-03-12 05:01:00,
2013-03-11 23:06:00,31.0,21.0,27.20,East,90,0.0,2.0,62,0.00,,,0.01,Rainwise IP-100,2013-03-12 05:06:00,
2013-03-11 23:11:00,31.0,21.0,27.20,SE,135,0.0,1.0,63,0.00,,,0.01,Rainwise IP-100,2013-03-12 05:11:00,
2013-03-11 23:16:00,31.0,21.0,27.20,SE,135,0.0,0.0,64,0.00,,,0.01,Rainwise IP-100,2013-03-12 05:16:00,
2013-03-11 23:21:00,31.0,21.0,27.20,SE,135,0.0,2.0,63,0.00,,,0.01,Rainwise IP-100,2013-03-12 05:21:00,
2013-03-11 23:26:00,31.0,21.0,27.20,SE,135,0.0,0.0,65,0.00,,,0.01,Rainwise IP-100,2013-03-12 05:26:00,
2013-03-11 23:31:00,30.0,21.0,27.20,SE,135,2.0,3.0,65,0.00,,,0.01,Rainwise IP-100,2013-03-12 05:31:00,
2013-03-11 23:36:00,31.0,21.0,27.20,SE,135,3.0,4.0,65,0.00,,,0.01,Rainwise IP-100,2013-03-12 05:36:00,
2013-03-11 23:41:00,31.0,21.0,27.19,SE,135,4.0,5.0,64,0.00,,,0.01,Rainwise IP-100,2013-03-12 05:41:00,
2013-03-11 23:46:00,32.0,21.0,27.19,East,90,2.0,6.0,63,0.00,,,0.01,Rainwise IP-100,2013-03-12 05:46:00,
2013-03-11 23:51:00,32.0,21.0,27.19,ESE,112,3.0,4.0,63,0.00,,,0.01,Rainwise IP-100,2013-03-12 05:51:00,
2013-03-11 23:57:00,32.0,23.0,27.19,ESE,112,1.0,3.0,64,0.00,,,0.01,Rainwise IP-100,2013-03-12 05:57:00,